Year,Month,Day,Hour,Minute,Value (Times are PST for temperature in C)
2016,08,23,00,00,16.10
2016,08,23,00,01,16.10
2016,08,23,00,02,16.10
2016,08,23,00,03,16.00
2016,08,23,00,04,16.00
2016,08,23,00,05,16.00
2016,08,23,00,06,15.90
2016,08,23,00,07,15.90
2016,08,23,00,08,15.90
2016,08,23,00,09,15.90
2016,08,23,00,10,15.90
2016,08,23,00,11,15.90
2016,08,23,00,12,15.90
2016,08,23,00,13,15.80
2016,08,23,00,14,15.80
2016,08,23,00,15,15.80
2016,08,23,00,16,15.70
2016,08,23,00,17,15.70
2016,08,23,00,18,15.70
2016,08,23,00,19,15.60
2016,08,23,00,20,15.60
2016,08,23,00,21,15.50
2016,08,23,00,22,15.50
2016,08,23,00,23,15.50
2016,08,23,00,24,15.40
2016,08,23,00,25,15.40
2016,08,23,00,26,15.30
2016,08,23,00,27,15.30
2016,08,23,00,28,15.30
2016,08,23,00,29,15.20
2016,08,23,00,30,15.20
2016,08,23,00,31,15.10
2016,08,23,00,32,15.10
2016,08,23,00,33,15.10
2016,08,23,00,34,15.00
2016,08,23,00,35,15.00
2016,08,23,00,36,15.00
2016,08,23,00,37,14.90
2016,08,23,00,38,14.90
2016,08,23,00,39,14.90
2016,08,23,00,40,14.90
2016,08,23,00,41,14.90
2016,08,23,00,42,14.90
2016,08,23,00,43,14.90
2016,08,23,00,44,14.90
2016,08,23,00,45,14.80
2016,08,23,00,46,14.80
2016,08,23,00,47,14.80
2016,08,23,00,48,14.80
2016,08,23,00,49,14.70
2016,08,23,00,50,14.70
2016,08,23,00,51,14.70
2016,08,23,00,52,14.70
2016,08,23,00,53,14.70
2016,08,23,00,54,14.60
2016,08,23,00,55,14.60
2016,08,23,00,56,14.60
2016,08,23,00,57,14.60
2016,08,23,00,58,14.50
2016,08,23,00,59,14.50
2016,08,23,01,00,14.40
2016,08,23,01,01,14.40
2016,08,23,01,02,14.30
2016,08,23,01,03,14.30
2016,08,23,01,04,14.20
2016,08,23,01,05,14.20
2016,08,23,01,06,14.20
2016,08,23,01,07,14.10
2016,08,23,01,08,14.10
2016,08,23,01,09,14.10
2016,08,23,01,10,14.00
2016,08,23,01,11,14.00
2016,08,23,01,12,13.90
2016,08,23,01,13,13.90
2016,08,23,01,14,13.80
2016,08,23,01,15,13.80
2016,08,23,01,16,13.80
2016,08,23,01,17,13.80
2016,08,23,01,18,13.80
2016,08,23,01,19,13.70
2016,08,23,01,20,13.70
2016,08,23,01,21,13.70
2016,08,23,01,22,13.70
2016,08,23,01,23,13.60
2016,08,23,01,24,13.60
2016,08,23,01,25,13.60
2016,08,23,01,26,13.60
2016,08,23,01,27,13.50
2016,08,23,01,28,13.50
2016,08,23,01,29,13.40
2016,08,23,01,30,13.40
2016,08,23,01,31,13.40
2016,08,23,01,32,13.40
2016,08,23,01,33,13.30
2016,08,23,01,34,13.30
2016,08,23,01,35,13.30
2016,08,23,01,36,13.30
2016,08,23,01,37,13.30
2016,08,23,01,38,13.20
2016,08,23,01,39,13.20
2016,08,23,01,40,13.20
2016,08,23,01,41,13.20
2016,08,23,01,42,13.20
2016,08,23,01,43,13.20
2016,08,23,01,44,13.20
2016,08,23,01,45,13.20
2016,08,23,01,46,13.10
2016,08,23,01,47,13.10
2016,08,23,01,48,13.10
2016,08,23,01,49,13.10
2016,08,23,01,50,13.10
2016,08,23,01,51,13.10
2016,08,23,01,52,13.10
2016,08,23,01,53,13.10
2016,08,23,01,54,13.00
2016,08,23,01,55,13.00
2016,08,23,01,56,13.00
2016,08,23,01,57,13.00
2016,08,23,01,58,13.00
2016,08,23,01,59,13.00
2016,08,23,02,00,13.00
2016,08,23,02,01,13.10
2016,08,23,02,02,13.00
2016,08,23,02,03,13.00
2016,08,23,02,04,13.00
2016,08,23,02,05,13.00
2016,08,23,02,06,12.90
2016,08,23,02,07,12.90
2016,08,23,02,08,12.90
2016,08,23,02,09,12.90
2016,08,23,02,10,12.90
2016,08,23,02,11,12.90
2016,08,23,02,12,12.90
2016,08,23,02,13,13.00
2016,08,23,02,14,13.00
2016,08,23,02,15,13.00
2016,08,23,02,16,13.10
2016,08,23,02,17,13.10
2016,08,23,02,18,13.20
2016,08,23,02,19,13.20
2016,08,23,02,20,13.20
2016,08,23,02,21,13.20
2016,08,23,02,22,13.20
2016,08,23,02,23,13.20
2016,08,23,02,24,13.20
2016,08,23,02,25,13.20
2016,08,23,02,26,13.20
2016,08,23,02,27,13.20
2016,08,23,02,28,13.20
2016,08,23,02,29,13.10
2016,08,23,02,30,13.10
2016,08,23,02,31,13.10
2016,08,23,02,32,13.10
2016,08,23,02,33,13.20
2016,08,23,02,34,13.20
2016,08,23,02,35,13.20
2016,08,23,02,36,13.20
2016,08,23,02,37,13.30
2016,08,23,02,38,13.30
2016,08,23,02,39,13.30
2016,08,23,02,40,13.30
2016,08,23,02,41,13.40
2016,08,23,02,42,13.40
2016,08,23,02,43,13.40
2016,08,23,02,44,13.40
2016,08,23,02,45,13.40
2016,08,23,02,46,13.50
2016,08,23,02,47,13.50
2016,08,23,02,48,13.60
2016,08,23,02,49,13.70
2016,08,23,02,50,13.80
2016,08,23,02,51,13.80
2016,08,23,02,52,13.90
2016,08,23,02,53,14.00
2016,08,23,02,54,14.10
2016,08,23,02,55,14.10
2016,08,23,02,56,14.20
2016,08,23,02,57,14.20
2016,08,23,02,58,14.20
2016,08,23,02,59,14.20
2016,08,23,03,00,14.20
2016,08,23,03,01,14.20
2016,08,23,03,02,14.20
2016,08,23,03,03,14.20
2016,08,23,03,04,14.30
2016,08,23,03,05,14.30
2016,08,23,03,06,14.30
2016,08,23,03,07,14.30
2016,08,23,03,08,14.30
2016,08,23,03,09,14.30
2016,08,23,03,10,14.30
2016,08,23,03,11,14.30
2016,08,23,03,12,14.20
2016,08,23,03,13,14.20
2016,08,23,03,14,14.10
2016,08,23,03,15,14.10
2016,08,23,03,16,14.00
2016,08,23,03,17,14.00
2016,08,23,03,18,13.90
2016,08,23,03,19,13.90
2016,08,23,03,20,13.80
2016,08,23,03,21,13.80
2016,08,23,03,22,13.80
2016,08,23,03,23,13.70
2016,08,23,03,24,13.70
2016,08,23,03,25,13.70
2016,08,23,03,26,13.70
2016,08,23,03,27,13.60
2016,08,23,03,28,13.60
2016,08,23,03,29,13.60
2016,08,23,03,30,13.60
2016,08,23,03,31,13.60
2016,08,23,03,32,13.60
2016,08,23,03,33,13.60
2016,08,23,03,34,13.50
2016,08,23,03,35,13.50
2016,08,23,03,36,13.50
2016,08,23,03,37,13.40
2016,08,23,03,38,13.40
2016,08,23,03,39,13.40
2016,08,23,03,40,13.30
2016,08,23,03,41,13.30
2016,08,23,03,42,13.30
2016,08,23,03,43,13.30
2016,08,23,03,44,13.30
2016,08,23,03,45,13.40
2016,08,23,03,46,13.40
2016,08,23,03,47,13.50
2016,08,23,03,48,13.60
2016,08,23,03,49,13.60
2016,08,23,03,50,13.70
2016,08,23,03,51,13.70
2016,08,23,03,52,13.70
2016,08,23,03,53,13.70
2016,08,23,03,54,13.80
2016,08,23,03,55,13.80
2016,08,23,03,56,13.80
2016,08,23,03,57,13.80
2016,08,23,03,58,13.80
2016,08,23,03,59,13.80
2016,08,23,04,00,13.80
2016,08,23,04,01,13.80
2016,08,23,04,02,13.80
2016,08,23,04,03,13.80
2016,08,23,04,04,13.80
2016,08,23,04,05,13.70
2016,08,23,04,06,13.70
2016,08,23,04,07,13.70
2016,08,23,04,08,13.70
2016,08,23,04,09,13.70
2016,08,23,04,10,13.70
2016,08,23,04,11,13.70
2016,08,23,04,12,13.70
2016,08,23,04,13,13.70
2016,08,23,04,14,13.70
2016,08,23,04,15,13.70
2016,08,23,04,16,13.70
2016,08,23,04,17,13.70
2016,08,23,04,18,13.70
2016,08,23,04,19,13.70
2016,08,23,04,20,13.70
2016,08,23,04,21,13.70
2016,08,23,04,22,13.70
2016,08,23,04,23,13.70
2016,08,23,04,24,13.70
2016,08,23,04,25,13.70
2016,08,23,04,26,13.70
2016,08,23,04,27,13.70
2016,08,23,04,28,13.70
2016,08,23,04,29,13.70
2016,08,23,04,30,13.70
2016,08,23,04,31,13.70
2016,08,23,04,32,13.70
2016,08,23,04,33,13.60
2016,08,23,04,34,13.60
2016,08,23,04,35,13.60
2016,08,23,04,36,13.60
2016,08,23,04,37,13.60
2016,08,23,04,38,13.50
2016,08,23,04,39,13.50
2016,08,23,04,40,13.40
2016,08,23,04,41,13.40
2016,08,23,04,42,13.30
2016,08,23,04,43,13.30
2016,08,23,04,44,13.20
2016,08,23,04,45,13.20
2016,08,23,04,46,13.20
2016,08,23,04,47,13.20
2016,08,23,04,48,13.20
2016,08,23,04,49,13.20
2016,08,23,04,50,13.20
2016,08,23,04,51,13.10
2016,08,23,04,52,13.10
2016,08,23,04,53,13.10
2016,08,23,04,54,13.00
2016,08,23,04,55,13.00
2016,08,23,04,56,12.90
2016,08,23,04,57,12.90
2016,08,23,04,58,12.90
2016,08,23,04,59,12.90
2016,08,23,05,00,12.80
2016,08,23,05,01,12.80
2016,08,23,05,02,12.80
2016,08,23,05,03,12.80
2016,08,23,05,04,12.90
2016,08,23,05,05,12.90
2016,08,23,05,06,12.90
2016,08,23,05,07,13.00
2016,08,23,05,08,13.00
2016,08,23,05,09,13.10
2016,08,23,05,10,13.10
2016,08,23,05,11,13.10
2016,08,23,05,12,13.10
2016,08,23,05,13,13.10
2016,08,23,05,14,13.20
2016,08,23,05,15,13.20
2016,08,23,05,16,13.20
2016,08,23,05,17,13.20
2016,08,23,05,18,13.20
2016,08,23,05,19,13.20
2016,08,23,05,20,13.20
2016,08,23,05,21,13.20
2016,08,23,05,22,13.20
2016,08,23,05,23,13.20
2016,08,23,05,24,13.20
2016,08,23,05,25,13.20
2016,08,23,05,26,13.20
2016,08,23,05,27,13.10
2016,08,23,05,28,13.10
2016,08,23,05,29,13.10
2016,08,23,05,30,13.10
2016,08,23,05,31,13.00
2016,08,23,05,32,13.00
2016,08,23,05,33,12.90
2016,08,23,05,34,12.90
2016,08,23,05,35,12.80
2016,08,23,05,36,12.80
2016,08,23,05,37,12.70
2016,08,23,05,38,12.70
2016,08,23,05,39,12.70
2016,08,23,05,40,12.70
2016,08,23,05,41,12.60
2016,08,23,05,42,12.60
2016,08,23,05,43,12.60
2016,08,23,05,44,12.60
2016,08,23,05,45,12.60
2016,08,23,05,46,12.60
2016,08,23,05,47,12.60
2016,08,23,05,48,12.60
2016,08,23,05,49,12.50
2016,08,23,05,50,12.50
2016,08,23,05,51,12.50
2016,08,23,05,52,12.40
2016,08,23,05,53,12.40
2016,08,23,05,54,12.40
2016,08,23,05,55,12.40
2016,08,23,05,56,12.40
2016,08,23,05,57,12.40
2016,08,23,05,58,12.40
2016,08,23,05,59,12.40
2016,08,23,06,00,12.40
2016,08,23,06,01,12.50
2016,08,23,06,02,12.50
2016,08,23,06,03,12.50
2016,08,23,06,04,12.40
2016,08,23,06,05,12.40
2016,08,23,06,06,12.40
2016,08,23,06,07,12.40
2016,08,23,06,08,12.40
2016,08,23,06,09,12.40
2016,08,23,06,10,12.30
2016,08,23,06,11,12.30
2016,08,23,06,12,12.30
2016,08,23,06,13,12.30
2016,08,23,06,14,12.30
2016,08,23,06,15,12.30
2016,08,23,06,16,12.30
2016,08,23,06,17,12.30
2016,08,23,06,18,12.20
2016,08,23,06,19,12.20
2016,08,23,06,20,12.20
2016,08,23,06,21,12.20
2016,08,23,06,22,12.10
2016,08,23,06,23,12.10
2016,08,23,06,24,12.10
2016,08,23,06,25,12.10
2016,08,23,06,26,12.10
2016,08,23,06,27,12.00
2016,08,23,06,28,12.00
2016,08,23,06,29,12.00
2016,08,23,06,30,12.00
2016,08,23,06,31,11.90
2016,08,23,06,32,11.90
2016,08,23,06,33,11.90
2016,08,23,06,34,11.90
2016,08,23,06,35,11.80
2016,08,23,06,36,11.80
2016,08,23,06,37,11.80
2016,08,23,06,38,11.80
2016,08,23,06,39,11.70
2016,08,23,06,40,11.70
2016,08,23,06,41,11.70
2016,08,23,06,42,11.70
2016,08,23,06,43,11.70
2016,08,23,06,44,11.60
2016,08,23,06,45,11.60
2016,08,23,06,46,11.60
2016,08,23,06,47,11.60
2016,08,23,06,48,11.60
2016,08,23,06,49,11.60
2016,08,23,06,50,11.60
2016,08,23,06,51,11.60
2016,08,23,06,52,11.50
2016,08,23,06,53,11.50
2016,08,23,06,54,11.50
2016,08,23,06,55,11.50
2016,08,23,06,56,11.50
2016,08,23,06,57,11.50
2016,08,23,06,58,11.40
2016,08,23,06,59,11.40
2016,08,23,07,00,11.40
2016,08,23,07,01,11.40
2016,08,23,07,02,11.40
2016,08,23,07,03,11.40
2016,08,23,07,04,11.40
2016,08,23,07,05,11.40
2016,08,23,07,06,11.40
2016,08,23,07,07,11.40
2016,08,23,07,08,11.50
2016,08,23,07,09,11.40
2016,08,23,07,10,11.50
2016,08,23,07,11,11.50
2016,08,23,07,12,11.50
2016,08,23,07,13,11.50
2016,08,23,07,14,11.60
2016,08,23,07,15,11.60
2016,08,23,07,16,11.60
2016,08,23,07,17,11.60
2016,08,23,07,18,11.60
2016,08,23,07,19,11.70
2016,08,23,07,20,11.70
2016,08,23,07,21,11.70
2016,08,23,07,22,11.70
2016,08,23,07,23,11.80
2016,08,23,07,24,11.80
2016,08,23,07,25,11.90
2016,08,23,07,26,11.90
2016,08,23,07,27,11.90
2016,08,23,07,28,12.00
2016,08,23,07,29,12.10
2016,08,23,07,30,12.10
2016,08,23,07,31,12.20
2016,08,23,07,32,12.30
2016,08,23,07,33,12.40
2016,08,23,07,34,12.50
2016,08,23,07,35,12.60
2016,08,23,07,36,12.70
2016,08,23,07,37,12.80
2016,08,23,07,38,12.90
2016,08,23,07,39,13.00
2016,08,23,07,40,13.10
2016,08,23,07,41,13.20
2016,08,23,07,42,13.30
2016,08,23,07,43,13.40
2016,08,23,07,44,13.50
2016,08,23,07,45,13.60
2016,08,23,07,46,13.70
2016,08,23,07,47,13.80
2016,08,23,07,48,13.90
2016,08,23,07,49,13.90
2016,08,23,07,50,14.00
2016,08,23,07,51,14.10
2016,08,23,07,52,14.20
2016,08,23,07,53,14.20
2016,08,23,07,54,14.30
2016,08,23,07,55,14.30
2016,08,23,07,56,14.40
2016,08,23,07,57,14.50
2016,08,23,07,58,14.50
2016,08,23,07,59,14.60
2016,08,23,08,00,14.60
2016,08,23,08,01,14.70
2016,08,23,08,02,14.70
2016,08,23,08,03,14.70
2016,08,23,08,04,14.80
2016,08,23,08,05,14.80
2016,08,23,08,06,14.80
2016,08,23,08,07,14.80
2016,08,23,08,08,14.90
2016,08,23,08,09,14.90
2016,08,23,08,10,14.90
2016,08,23,08,11,14.90
2016,08,23,08,12,15.00
2016,08,23,08,13,15.00
2016,08,23,08,14,15.10
2016,08,23,08,15,15.10
2016,08,23,08,16,15.10
2016,08,23,08,17,15.10
2016,08,23,08,18,15.20
2016,08,23,08,19,15.20
2016,08,23,08,20,15.20
2016,08,23,08,21,15.30
2016,08,23,08,22,15.30
2016,08,23,08,23,15.30
2016,08,23,08,24,15.30
2016,08,23,08,25,15.30
2016,08,23,08,26,15.30
2016,08,23,08,27,15.30
2016,08,23,08,28,15.30
2016,08,23,08,29,15.30
2016,08,23,08,30,15.30
2016,08,23,08,31,15.30
2016,08,23,08,32,15.30
2016,08,23,08,33,15.40
2016,08,23,08,34,15.40
2016,08,23,08,35,15.40
2016,08,23,08,36,15.40
2016,08,23,08,37,15.40
2016,08,23,08,38,15.40
2016,08,23,08,39,15.40
2016,08,23,08,40,15.40
2016,08,23,08,41,15.40
2016,08,23,08,42,15.40
2016,08,23,08,43,15.40
2016,08,23,08,44,15.40
2016,08,23,08,45,15.40
2016,08,23,08,46,15.50
2016,08,23,08,47,15.60
2016,08,23,08,48,15.60
2016,08,23,08,49,15.70
2016,08,23,08,50,15.80
2016,08,23,08,51,15.80
2016,08,23,08,52,15.80
2016,08,23,08,53,15.80
2016,08,23,08,54,15.80
2016,08,23,08,55,15.90
2016,08,23,08,56,15.90
2016,08,23,08,57,15.90
2016,08,23,08,58,15.90
2016,08,23,08,59,16.00
2016,08,23,09,00,16.00
2016,08,23,09,01,16.00
2016,08,23,09,02,16.00
2016,08,23,09,03,16.00
2016,08,23,09,04,16.00
2016,08,23,09,05,16.10
2016,08,23,09,06,16.10
2016,08,23,09,07,16.10
2016,08,23,09,08,16.10
2016,08,23,09,09,16.10
2016,08,23,09,10,16.20
2016,08,23,09,11,16.20
2016,08,23,09,12,16.20
2016,08,23,09,13,16.30
2016,08,23,09,14,16.30
2016,08,23,09,15,16.30
2016,08,23,09,16,16.40
2016,08,23,09,17,16.50
2016,08,23,09,18,16.50
2016,08,23,09,19,16.60
2016,08,23,09,20,16.60
2016,08,23,09,21,16.60
2016,08,23,09,22,16.60
2016,08,23,09,23,16.60
2016,08,23,09,24,16.60
2016,08,23,09,25,16.70
2016,08,23,09,26,16.70
2016,08,23,09,27,16.70
2016,08,23,09,28,16.70
2016,08,23,09,29,16.80
2016,08,23,09,30,16.80
2016,08,23,09,31,16.90
2016,08,23,09,32,17.00
2016,08,23,09,33,17.10
2016,08,23,09,34,17.20
2016,08,23,09,35,17.30
2016,08,23,09,36,17.40
2016,08,23,09,37,17.40
2016,08,23,09,38,17.50
2016,08,23,09,39,17.50
2016,08,23,09,40,17.60
2016,08,23,09,41,17.60
2016,08,23,09,42,17.70
2016,08,23,09,43,17.70
2016,08,23,09,44,17.80
2016,08,23,09,45,17.90
2016,08,23,09,46,18.00
2016,08,23,09,47,18.10
2016,08,23,09,48,18.10
2016,08,23,09,49,18.20
2016,08,23,09,50,18.20
2016,08,23,09,51,18.20
2016,08,23,09,52,18.20
2016,08,23,09,53,18.20
2016,08,23,09,54,18.30
2016,08,23,09,55,18.40
2016,08,23,09,56,18.50
2016,08,23,09,57,18.60
2016,08,23,09,58,18.60
2016,08,23,09,59,18.70
2016,08,23,10,00,18.70
2016,08,23,10,01,18.80
2016,08,23,10,02,18.90
2016,08,23,10,03,18.90
2016,08,23,10,04,18.90
2016,08,23,10,05,19.00
2016,08,23,10,06,19.00
2016,08,23,10,07,19.00
2016,08,23,10,08,18.80
2016,08,23,10,09,18.70
2016,08,23,10,10,18.50
2016,08,23,10,11,18.50
2016,08,23,10,12,18.40
2016,08,23,10,13,18.30
2016,08,23,10,14,18.20
2016,08,23,10,15,18.10
2016,08,23,10,16,18.00
2016,08,23,10,17,17.90
2016,08,23,10,18,17.80
2016,08,23,10,19,17.70
2016,08,23,10,20,17.70
2016,08,23,10,21,17.70
2016,08,23,10,22,17.80
2016,08,23,10,23,17.80
2016,08,23,10,24,17.90
2016,08,23,10,25,17.90
2016,08,23,10,26,18.00
2016,08,23,10,27,17.90
2016,08,23,10,28,17.90
2016,08,23,10,29,17.90
2016,08,23,10,30,17.90
2016,08,23,10,31,17.90
2016,08,23,10,32,18.00
2016,08,23,10,33,17.90
2016,08,23,10,34,17.80
2016,08,23,10,35,17.80
2016,08,23,10,36,17.80
2016,08,23,10,37,17.80
2016,08,23,10,38,17.80
2016,08,23,10,39,17.80
2016,08,23,10,40,17.90
2016,08,23,10,41,17.90
2016,08,23,10,42,18.00
2016,08,23,10,43,18.00
2016,08,23,10,44,18.10
2016,08,23,10,45,18.20
2016,08,23,10,46,18.20
2016,08,23,10,47,18.30
2016,08,23,10,48,18.40
2016,08,23,10,49,18.50
2016,08,23,10,50,18.50
2016,08,23,10,51,18.60
2016,08,23,10,52,18.60
2016,08,23,10,53,18.60
2016,08,23,10,54,18.60
2016,08,23,10,55,18.60
2016,08,23,10,56,18.60
2016,08,23,10,57,18.50
2016,08,23,10,58,18.50
2016,08,23,10,59,18.40
2016,08,23,11,00,18.50
2016,08,23,11,01,18.50
2016,08,23,11,02,18.60
2016,08,23,11,03,18.70
2016,08,23,11,04,18.70
2016,08,23,11,05,18.70
2016,08,23,11,06,18.80
2016,08,23,11,07,18.70
2016,08,23,11,08,18.60
2016,08,23,11,09,18.50
2016,08,23,11,10,18.40
2016,08,23,11,11,18.30
2016,08,23,11,12,18.20
2016,08,23,11,13,18.20
2016,08,23,11,14,18.20
2016,08,23,11,15,18.10
2016,08,23,11,16,18.10
2016,08,23,11,17,18.10
2016,08,23,11,18,18.20
2016,08,23,11,19,18.30
2016,08,23,11,20,18.30
2016,08,23,11,21,18.40
2016,08,23,11,22,18.40
2016,08,23,11,23,18.40
2016,08,23,11,24,18.40
2016,08,23,11,25,18.40
2016,08,23,11,26,18.50
2016,08,23,11,27,18.60
2016,08,23,11,28,18.70
2016,08,23,11,29,18.80
2016,08,23,11,30,18.90
2016,08,23,11,31,19.00
2016,08,23,11,32,19.20
2016,08,23,11,33,19.30
2016,08,23,11,34,19.40
2016,08,23,11,35,19.50
2016,08,23,11,36,19.60
2016,08,23,11,37,19.60
2016,08,23,11,38,19.60
2016,08,23,11,39,19.70
2016,08,23,11,40,19.70
2016,08,23,11,41,19.80
2016,08,23,11,42,19.90
2016,08,23,11,43,19.90
2016,08,23,11,44,19.90
2016,08,23,11,45,19.90
2016,08,23,11,46,19.90
2016,08,23,11,47,19.80
2016,08,23,11,48,19.80
2016,08,23,11,49,19.80
2016,08,23,11,50,19.90
2016,08,23,11,51,19.90
2016,08,23,11,52,19.90
2016,08,23,11,53,20.00
2016,08,23,11,54,19.90
2016,08,23,11,55,19.70
2016,08,23,11,56,19.60
2016,08,23,11,57,19.50
2016,08,23,11,58,19.40
2016,08,23,11,59,19.40
2016,08,23,12,00,19.50
2016,08,23,12,01,19.50
2016,08,23,12,02,19.60
2016,08,23,12,03,19.70
2016,08,23,12,04,19.80
2016,08,23,12,05,19.80
2016,08,23,12,06,19.80
2016,08,23,12,07,19.70
2016,08,23,12,08,19.60
2016,08,23,12,09,19.50
2016,08,23,12,10,19.50
2016,08,23,12,11,19.50
2016,08,23,12,12,19.60
2016,08,23,12,13,19.70
2016,08,23,12,14,19.80
2016,08,23,12,15,19.90
2016,08,23,12,16,20.00
2016,08,23,12,17,20.10
2016,08,23,12,18,20.20
2016,08,23,12,19,20.10
2016,08,23,12,20,20.00
2016,08,23,12,21,19.90
2016,08,23,12,22,19.70
2016,08,23,12,23,19.70
2016,08,23,12,24,19.70
2016,08,23,12,25,19.80
2016,08,23,12,26,19.80
2016,08,23,12,27,20.00
2016,08,23,12,28,20.10
2016,08,23,12,29,20.10
2016,08,23,12,30,20.20
2016,08,23,12,31,20.20
2016,08,23,12,32,20.20
2016,08,23,12,33,20.30
2016,08,23,12,34,20.40
2016,08,23,12,35,20.50
2016,08,23,12,36,20.60
2016,08,23,12,37,20.60
2016,08,23,12,38,20.70
2016,08,23,12,39,20.60
2016,08,23,12,40,20.60
2016,08,23,12,41,20.50
2016,08,23,12,42,20.40
2016,08,23,12,43,20.40
2016,08,23,12,44,20.40
2016,08,23,12,45,20.50
2016,08,23,12,46,20.60
2016,08,23,12,47,20.70
2016,08,23,12,48,20.80
2016,08,23,12,49,20.80
2016,08,23,12,50,20.90
2016,08,23,12,51,20.90
2016,08,23,12,52,21.00
2016,08,23,12,53,21.00
2016,08,23,12,54,21.00
2016,08,23,12,55,20.90
2016,08,23,12,56,20.70
2016,08,23,12,57,20.50
2016,08,23,12,58,20.20
2016,08,23,12,59,20.00
2016,08,23,13,00,19.80
2016,08,23,13,01,19.70
2016,08,23,13,02,19.60
2016,08,23,13,03,19.60
2016,08,23,13,04,19.70
2016,08,23,13,05,19.60
2016,08,23,13,06,19.50
2016,08,23,13,07,19.40
2016,08,23,13,08,19.40
2016,08,23,13,09,19.40
2016,08,23,13,10,19.50
2016,08,23,13,11,19.60
2016,08,23,13,12,19.70
2016,08,23,13,13,19.70
2016,08,23,13,14,19.80
2016,08,23,13,15,19.90
2016,08,23,13,16,20.00
2016,08,23,13,17,20.10
2016,08,23,13,18,20.10
2016,08,23,13,19,20.10
2016,08,23,13,20,20.10
2016,08,23,13,21,20.00
2016,08,23,13,22,19.90
2016,08,23,13,23,19.80
2016,08,23,13,24,19.80
2016,08,23,13,25,19.80
2016,08,23,13,26,19.80
2016,08,23,13,27,19.80
2016,08,23,13,28,19.90
2016,08,23,13,29,20.00
2016,08,23,13,30,20.00
2016,08,23,13,31,20.10
2016,08,23,13,32,20.10
2016,08,23,13,33,20.10
2016,08,23,13,34,20.10
2016,08,23,13,35,20.20
2016,08,23,13,36,20.30
2016,08,23,13,37,20.40
2016,08,23,13,38,20.50
2016,08,23,13,39,20.50
2016,08,23,13,40,20.60
2016,08,23,13,41,20.70
2016,08,23,13,42,20.70
2016,08,23,13,43,20.70
2016,08,23,13,44,20.70
2016,08,23,13,45,20.70
2016,08,23,13,46,20.70
2016,08,23,13,47,20.80
2016,08,23,13,48,20.80
2016,08,23,13,49,20.70
2016,08,23,13,50,20.60
2016,08,23,13,51,20.50
2016,08,23,13,52,20.50
2016,08,23,13,53,20.40
2016,08,23,13,54,20.40
2016,08,23,13,55,20.40
2016,08,23,13,56,20.40
2016,08,23,13,57,20.50
2016,08,23,13,58,20.60
2016,08,23,13,59,20.70
2016,08,23,14,00,20.70
2016,08,23,14,01,20.70
2016,08,23,14,02,20.80
2016,08,23,14,03,20.80
2016,08,23,14,04,20.80
2016,08,23,14,05,20.80
2016,08,23,14,06,20.90
2016,08,23,14,07,20.90
2016,08,23,14,08,21.00
2016,08,23,14,09,21.00
2016,08,23,14,10,21.10
2016,08,23,14,11,21.10
2016,08,23,14,12,21.20
2016,08,23,14,13,21.40
2016,08,23,14,14,21.40
2016,08,23,14,15,21.60
2016,08,23,14,16,21.60
2016,08,23,14,17,21.70
2016,08,23,14,18,21.70
2016,08,23,14,19,21.70
2016,08,23,14,20,21.70
2016,08,23,14,21,21.70
2016,08,23,14,22,21.60
2016,08,23,14,23,21.60
2016,08,23,14,24,21.60
2016,08,23,14,25,21.70
2016,08,23,14,26,21.80
2016,08,23,14,27,21.80
2016,08,23,14,28,21.70
2016,08,23,14,29,21.60
2016,08,23,14,30,21.60
2016,08,23,14,31,21.70
2016,08,23,14,32,21.80
2016,08,23,14,33,21.90
2016,08,23,14,34,21.90
2016,08,23,14,35,22.00
2016,08,23,14,36,22.00
2016,08,23,14,37,22.00
2016,08,23,14,38,22.00
2016,08,23,14,39,22.10
2016,08,23,14,40,22.10
2016,08,23,14,41,22.30
2016,08,23,14,42,22.30
2016,08,23,14,43,22.30
2016,08,23,14,44,22.30
2016,08,23,14,45,22.40
2016,08,23,14,46,22.40
2016,08,23,14,47,22.50
2016,08,23,14,48,22.60
2016,08,23,14,49,22.70
2016,08,23,14,50,22.80
2016,08,23,14,51,22.90
2016,08,23,14,52,22.90
2016,08,23,14,53,22.90
2016,08,23,14,54,23.00
2016,08,23,14,55,23.10
2016,08,23,14,56,23.20
2016,08,23,14,57,23.30
2016,08,23,14,58,23.30
2016,08,23,14,59,23.20
2016,08,23,15,00,23.10
2016,08,23,15,01,23.00
2016,08,23,15,02,22.90
2016,08,23,15,03,22.90
2016,08,23,15,04,23.00
2016,08,23,15,05,23.00
2016,08,23,15,06,23.10
2016,08,23,15,07,23.10
2016,08,23,15,08,23.10
2016,08,23,15,09,23.10
2016,08,23,15,10,23.10
2016,08,23,15,11,23.20
2016,08,23,15,12,23.20
2016,08,23,15,13,23.20
2016,08,23,15,14,23.30
2016,08,23,15,15,23.30
2016,08,23,15,16,23.30
2016,08,23,15,17,23.30
2016,08,23,15,18,23.30
2016,08,23,15,19,23.40
2016,08,23,15,20,23.40
2016,08,23,15,21,23.50
2016,08,23,15,22,23.60
2016,08,23,15,23,23.70
2016,08,23,15,24,23.70
2016,08,23,15,25,23.60
2016,08,23,15,26,23.50
2016,08,23,15,27,23.40
2016,08,23,15,28,23.30
2016,08,23,15,29,23.20
2016,08,23,15,30,23.10
2016,08,23,15,31,23.00
2016,08,23,15,32,22.90
2016,08,23,15,33,22.90
2016,08,23,15,34,23.00
2016,08,23,15,35,23.00
2016,08,23,15,36,23.10
2016,08,23,15,37,23.10
2016,08,23,15,38,23.10
2016,08,23,15,39,23.10
2016,08,23,15,40,23.20
2016,08,23,15,41,23.20
2016,08,23,15,42,23.20
2016,08,23,15,43,23.30
2016,08,23,15,44,23.30
2016,08,23,15,45,23.30
2016,08,23,15,46,23.30
2016,08,23,15,47,23.20
2016,08,23,15,48,23.20
2016,08,23,15,49,23.20
2016,08,23,15,50,23.20
2016,08,23,15,51,23.20
2016,08,23,15,52,23.20
2016,08,23,15,53,23.20
2016,08,23,15,54,23.20
2016,08,23,15,55,23.20
2016,08,23,15,56,23.20
2016,08,23,15,57,23.20
2016,08,23,15,58,23.30
2016,08,23,15,59,23.30
2016,08,23,16,00,23.30
2016,08,23,16,01,23.30
2016,08,23,16,02,23.30
2016,08,23,16,03,23.40
2016,08,23,16,04,23.40
2016,08,23,16,05,23.40
2016,08,23,16,06,23.50
2016,08,23,16,07,23.60
2016,08,23,16,08,23.60
2016,08,23,16,09,23.70
2016,08,23,16,10,23.80
2016,08,23,16,11,23.80
2016,08,23,16,12,23.80
2016,08,23,16,13,23.70
2016,08,23,16,14,23.70
2016,08,23,16,15,23.50
2016,08,23,16,16,23.50
2016,08,23,16,17,23.50
2016,08,23,16,18,23.50
2016,08,23,16,19,23.50
2016,08,23,16,20,23.50
2016,08,23,16,21,23.60
2016,08,23,16,22,23.60
2016,08,23,16,23,23.70
2016,08,23,16,24,23.70
2016,08,23,16,25,23.60
2016,08,23,16,26,23.60
2016,08,23,16,27,23.60
2016,08,23,16,28,23.60
2016,08,23,16,29,23.70
2016,08,23,16,30,23.80
2016,08,23,16,31,23.90
2016,08,23,16,32,24.00
2016,08,23,16,33,24.00
2016,08,23,16,34,24.10
2016,08,23,16,35,24.10
2016,08,23,16,36,24.10
2016,08,23,16,37,24.10
2016,08,23,16,38,24.10
2016,08,23,16,39,24.10
2016,08,23,16,40,24.10
2016,08,23,16,41,24.10
2016,08,23,16,42,24.10
2016,08,23,16,43,24.10
2016,08,23,16,44,24.20
2016,08,23,16,45,24.20
2016,08,23,16,46,24.20
2016,08,23,16,47,24.20
2016,08,23,16,48,24.10
2016,08,23,16,49,24.10
2016,08,23,16,50,24.10
2016,08,23,16,51,24.10
2016,08,23,16,52,24.10
2016,08,23,16,53,24.10
2016,08,23,16,54,24.00
2016,08,23,16,55,23.90
2016,08,23,16,56,23.80
2016,08,23,16,57,23.80
2016,08,23,16,58,23.80
2016,08,23,16,59,23.80
2016,08,23,17,00,23.80
2016,08,23,17,01,23.90
2016,08,23,17,02,23.90
2016,08,23,17,03,24.00
2016,08,23,17,04,24.00
2016,08,23,17,05,24.00
2016,08,23,17,06,24.10
2016,08,23,17,07,24.10
2016,08,23,17,08,24.20
2016,08,23,17,09,24.20
2016,08,23,17,10,24.30
2016,08,23,17,11,24.30
2016,08,23,17,12,24.30
2016,08,23,17,13,24.20
2016,08,23,17,14,24.20
2016,08,23,17,15,24.20
2016,08,23,17,16,24.20
2016,08,23,17,17,24.20
2016,08,23,17,18,24.20
2016,08,23,17,19,24.30